Погода Терней

Погода Терней : погода сейчас, прогноз погоды и архив. Всё, что Вы хотите узнать о погоде Терней!

Хотите узнать прогноз погоды Терней? Тогда Вам сюда: Погода Терней

Поиск расширенной информации на нашем сайте:

Другие новости

Новости СМИ2

Главная страница сайта

Новости сайта

02.10.2013

Напоминаем, что на нашем новом сайте вы можете получить высокодетализированные прогнозы погоды по пунктам России, СНГ и мира (включающие важные для авиации метеовеличины, такие как направление и скорость ветра, видимость, явления погоды, количество и форма облачности, нижняя и верхняя граница облачности), а также ознакомиться с разнообразными материалами по авиационной метеорологии и подборкой полезных ссылок на эту тему.

Сайт Метеоцентр.Азия посвящён разработке технологий оптимизации авиаметеорологического обслуживания, включая проектирование и перспективное создание нескольких автоматизированных авиаметеорологических систем:
- система выпуска высокодетальных прогностических карт явлений погоды для нижнего воздушного пространства по России и ближнему зарубежью;
- система верификации прогнозов TAF (выпускаемых синоптиками официальных АМСГ РФ и ближнего зарубежья) и AUTOTAF (выпускаемых сайтом Метеоцентр.Азия) - выявление ошибок, онлайн-сопоставление с фактической погодой METAR, автоматическое внесение коррективов в прогнозы при резком отклонении фактической погоды от прогноза, подсчёт оправдываемости прогнозов по элементам и в целом;
- система обработки, анализа и отображения авиаметеорологической информации для применения провайдерами метеорологической информации.

Рекомендуем: Камаз 45143 продажа камазов самосвалов.

Погода Терней - сегодня

Время (UTC), дата Ветер
(°,м/с) 
Видим.   Явления Облачность Т
(°С)
Тd
(°С)
f(%) Тe
(°С)
Pmin
(гПа)
dP
(гПа)
Po
(мм)
O2
(г/м3)
Тmin Tmax R s Состояние
почвы
15 22.03.17 320 (СЗ) 20000 м  {ливн. осадки}  8/8 600 м 
[Sc]
-3.5 -4.3 94 -3  1016  0.3  756  309           
18 22.03.17 270 (З) 20000 м  {ливн. осадки}  ясно 
-4.9 -5.3 97 -4  1015.5  -0.5  756  311           
21 22.03.17 200 (Ю) 20000 м    3/0 средняя 
[Ac trans]
-6 -6.6 95 -6  1015.6  756  312  -6.3    0.7  равномерный
сухой снег
100% 
00 23.03.17 300 (СЗ) 20000 м    3/3 600 м 
[Sc]
+3 -6 52 +2  1015.7  0.4  756  302           
03 23.03.17 290 (З) 20000 м    10/4 600 м средняя, верхняя 
[Sc|Ac trans|Ci fib]
+4.4 -7.2 43 +2  1014.9  -0.8  755  300           
06 23.03.17 290 (З) 6-10{11}  20000 м    4/4 1000 м 
[Cu med, cong]
+5.9 -6.9 39 +4  1013.4  -1.4  754  298           
09 23.03.17 120 (ЮВ) 2{10}  20000 м    10/3 600 м средняя, верхняя 
[Sc|Ac trans|Ci fib]
-0.4 -3.3 81 -1  1014.7  1.1  755  305    +6.4       
12 23.03.17 320 (СЗ) 20000 м    8/0 средняя 
[Ac trans]
+0.5 -8 53 -2  1016.1  1.4  756  305           
15 23.03.17 320 (СЗ) 20000 м    ясно 
-0.5 -10.4 47 -3  1016.7  0.6  757  306           
18 23.03.17 310 (СЗ) 20000 м    ясно 
-1.2 -11.5 45 -4  1016.7  -0.1  757  307           
21 23.03.17 300 (СЗ) 20000 м    3/0 средняя 
[Ac lent]
-2 -10.2 53 -5  1017.3  0.6  757  308  -2.2         
00 24.03.17 320 (СЗ) 6-11{12}  20000 м    4/0 верхняя 
[Cs]
+3.5 -8.3 42 +1  1017.1  757  302           
03 24.03.17 120 (ЮВ) 4{11}  20000 м    8/8 600 м 
[Sc]
+3.8 -9 39 +2  1016.1  -1  756  301           
06 24.03.17 110 (В) 20000 м    10/10 600 м 
[Sc]
+2.3 -9.6 41 +2  1016.4  0.3  757  303           
09 24.03.17 010 (С) 20000 м    9/9 600 м 
[Sc]
-0 -4.2 73 +1  1017.9  1.4  758  306    +6.9       
12 24.03.17 250 (З) 20000 м    ясно 
+0.1 -6.7 60 -1  1018.8  0.9  758  306           
15 24.03.17 320 (СЗ) 20000 м    ясно 
-1.7 -7.3 66 -4  1018.8  -0.1  758  308           
18 24.03.17 290 (З) 20000 м    ясно 
-2.7 -7.2 71 -4  1019.2  0.4  758  309           
21 24.03.17 300 (СЗ) 20000 м    1/0 средняя 
[Ac cast]
-3.8 -7.5 75 -7  1020.1  0.8  759  311  -4.3      мокрый или
старый снег
10-40% 
00 25.03.17 310 (СЗ) 20000 м    ясно 
+4.4 -7 43 +3  1019.8  759  302           
03 25.03.17 110 (В) 20000 м    4/3 600 м верхняя 
[Sc|Ci fib]
+4.8 -6.2 45 +3  1018.7  -1.1  758  301           
06 25.03.17 140 (ЮВ) 20000 м    9/9 600 м 
[Sc]
+4.5 -7.7 41 +3  1018  -0.7  758  301           
09 25.03.17 120 (ЮВ) 20000 м    3/3 600 м 
[Sc]
+0 -3.9 75 -1  1018.9  0.8  758  306    +5.8       
12 25.03.17 300 (СЗ) 20000 м    ясно 
-1.6 -5.1 77 -4  1020  759  308           
15 25.03.17 310 (СЗ) 20000 м    ясно 
-2.1 -6.4 72 -3  1019.8  -0.2  759  309           
Время (UTC), дата Ветер
(°,м/с) 
Видим.   Явления Облачность Т
(°С)
Тd
(°С)
f(%) Тe
(°С)
Pmin
(гПа)
dP
(гПа)
Po
(мм)
O2
(г/м3)
Тmin Tmax R s Состояние
почвы

Для получения пояснительной информации подведите курсор к названию столбца.

ПОГОДА Терней - архив

Всё, что Вы хотите узнать о погоде Терней - удобно и подробно!

Выберите нужную дату (начиная с 1 января 2015* года) и нажмите кнопку "Найти".
Будут отображены архивные сводки погоды по пункту Терней, начиная с указанной даты.


Отображать данные в формате CSV (для использования в таблицах Excel)


Внимание! Наш архив погоды предназначен исключительно для личного некоммерческого использования в познавательных целях. Если Вам необходимы официальные справки о состоянии погоды (для производственных, юридических, коммерческих и т.п. целей), обращайтесь в органы Росгидромета.

*Примечание: данная дата относится к архиву по метеостанциям СССР (Россия, СНГ, Балтия).
Архив по метеостанциям Зарубежной Европы и Азии (кроме Китая) хранится 10 дней, по другим регионам земного шара (Китай, Африка, Америка, Австралия, Океания) - 1 день.

Терней - район местоположения метеостанции


Название, широта, долгота, высота метеостанции:
Терней 45°ш. 136.6°д. 68 м над ур. моря [Российская Федерация]

Дополнительная информация

В oтличие oт бoльшинства пoгoдных сайтoв мы публикуем пoдрoбную метеoинфoрмацию в детальнoм прoфессиoнальнoм фoрмате.

Характеристики температуры и влажнoсти вoздуха измеряются на высoте 2 м в тени вдали oт зданий и деревьев.
Скoрoсть ветра измеряется на высoте 10 м (на урoвне рoста челoвека скoрoсть ветра ниже в 1.5-2 раза). Если метеoстанция нахoдится в гoрoде или в лесу, тo скoрoсть ветра занижена на 2-4 м/с пo сравнению с oткрытым местoм. Скoрoсть ветра над акватoриями крупных рек и oзёр, а также на вершинах хoлмoв на 2-5 м/с выше, чем в oбычных услoвиях.
Атмoсфернoе давление в разных тoчках местнoсти мoжет значительнo oтличаться oт давления на метеoстанции, в зависимoсти oт услoвий рельефа (при пoдъёме на 10 м давление пoнижается примернo на 1 мм рт.ст.).